OBJECT L, 62387

Orbit data source: Space-Track

You're viewing an Uncataloged Satellite

Recently launched and/or uncataloged satellites may have evolving metadata. Metadata may include but not limited to: Owner, Maufacturer, Bus, Motor, and Mission.

OBJECT L, 62387 is a satellite in LEO that was launched on Sat, 21 Dec 2024 UTC via an FALCON 9 launch vehicle from the Air Force Western Test Range (AFWTR). Unknown objects in Earth's orbit typically refer to objects detected orbiting the Earth but have not yet been identified or cataloged. These objects could be anything from previously untracked satellites, spent rocket stages, debris from satellite collisions, or even natural meteoroids temporarily captured by Earth's gravity.

Loading next visibility...
Identifier
62387, 2024-247L
Orbit
LEO
Country
Flag of TBDTBD
Related business
None
Manufacturer
Unknown
Mission
Operational Amateur Technology
Bus & Motor
Unknown
Mass
Unknown
Launch date (UTC)
2024-12-21 (1 year ago)
Launch vehicle
FALCON 9
Launch site
Air Force Western Test Range (AFWTR)
Object type
Unknown
Shape & HBR
Box, 0.1 m
Radar Cross Section
0.015 m², Small (<0.1 m²)

Expand to show TLE details & history
Last TLE update: 13 hours ago

TLE from 13 hours ago
0 OBJECT L
1 62387U 24247L   25345.06254705  .00041635  00000-0  11025-2 0  9993
2 62387  44.9919 223.7881 0008219 186.0308 174.0481 15.37719688 54381
Epoch: 2025-12-11T01:30Z
TLE epoch observation values (Epoch: 2025-12-11T01:30:04.065Z)
Latitude
-0°
Longitude
121.24724°
Altitude
458.435 km
Speed
7.636 km/s
True Right ascension
14h 55m 09s
True Declination
0° 00' 00"
Sunlit
Object was in daylight at epoch
Visualization orbit readout
Latitude
Unknown
Longitude
Unknown
Altitude
Unknown
Speed
Unknown
Apparent Right ascension
Unknown
Apparent Declination
Unknown
Sunlit
N/A
Visualization observer readout
Local Sidereal Time
13:00:23
Azimuth
Unknown
Elevation
Unknown
Doppler factor
Unknown
Orbital elements
Apogee altitude
460.088 km
Perigee altitude
448.856 km
Semi-major axis
6,832.609 km
Eccentricity
0.00082
Inclination
44.9919°
RAAN
223.7881°
Arg. of periapsis
186.0308°
True anomaly
174.05786°
Mean anomaly
174.0481°
Eccentric anomaly
174.05298°
Mean motion
3.84294 °/min
Orbital period
93.68 mins
BSTAR
0.0011025
Loading maneuver chart data...
Computing Atmospheric mass density...
Loading historical data...
Loading historical data...
Loading historical data...
Loading historical data...
Loading historical data...
Loading historical data...
Loading historical data...

Documentation

Showing up to 5 results
|